{"data":{"norad_id":54770,"epoch":"2026-05-25T02:36:42.987168Z","epoch_age_seconds":65370,"freshness":"FRESH","line1":"1 54770U 22175N   26145.10883087  .00000519  00000+0  50681-4 0  9991","line2":"2 54770  53.2132  46.2421 0001559 100.2942 259.8226 15.08840853191667","mean_motion":15.08840853,"eccentricity":0.0001559,"inclination_deg":53.2132,"raan_deg":46.2421,"arg_perigee_deg":100.2942,"mean_anomaly_deg":259.8226,"bstar":5.0681e-5,"rev_number":19166,"period_min":95.43750072361,"perigee_km":538.66228453942,"apogee_km":540.81927883174,"semimajor_km":6917.8777816856,"source":"CELESTRAK","updated_at":"2026-05-25T13:38:17.690091Z"}}